Location: Cheyres
(46.8153°N, 6.7877°E)
Time: 14:10:44
(UTC+00:00)

NOSS 3-4 (A) - Pass Details

Date: 11 May 2021
Orbit: 872 x 1340 km, 63.4° (Epoch: 06 May)

Event Time Altitude Azimuth Distance (km) Brightness Sun altitude
Rises 21:10:20 0° 320° (NW) 3,800 8.3 -17.9°
Reaches altitude 10° 21:12:50 10° 320° (NW) 2,907 7.3 -18.2°
Maximum altitude 21:19:49 90° 235° (SW) 1,170 3.8 -18.8°
Enters shadow 21:24:06 30° 143° (SE) 2,047 4.6 -19.2°
